EHI
0 0 0 0 0 0 0 0 0 0 0 0 0 0 0 0 0 4 7 4 0 0 0 3 7 6 1 0 0 1 2 3 5 6 5 3 1 0 0 0 0 0 0 0 0 0 0 0 0
0 0 0 0 0 0 0 0 0 0 0 0 0 0 0 0 1 5 9 5 1 0 0 4 9 8 2 0 0 1 1 2 2 3 2 1 0 0 0 0 0 0 0 0 0 0 0 0 0
0 0 0 0 0 0 0 0 0 0 0 0 0 0 0 0 2 7 9 6 1 0 0 3 9 9 6 4 4 3 2 1 0 0 0 0 0 0 0 0 0 0 0 0 0 0 0 0 0
0 0 0 0 0 0 0 0 0 0 0 0 0 0 0 1 4 8 9 4 1 0 0 2 5 7 9 11 10 6 3 1 0 0 0 0 0 0 0 0 0 0 0 0 0 0 0 0 0
0 0 0 0 0 0 0 0 0 0 0 0 0 0 0 2 8 11 7 2 0 0 0 0 2 4 7 10 10 6 3 1 0 0 0 0 0 0 0 0 0 0 0 0 0 0 0 0 0
0 0 0 0 0 0 0 0 0 0 0 0 0 0 1 5 12 11 5 0 0 0 0 0 0 1 3 4 6 5 3 1 0 0 0 0 0 0 0 0 0 0 0 0 0 0 0 0 0
0 0 0 0 0 0 0 0 0 0 0 0 0 0 4 12 16 10 2 0 0 0 0 0 0 0 1 1 2 3 2 1 0 0 0 0 0 0 0 0 0 0 0 0 0 0 0 0 0
0 0 0 0 0 0 0 0 0 0 0 0 0 0 9 24 23 9 1 0 0 0 0 0 0 0 0 0 0 1 1 1 0 0 0 0 0 0 0 0 0 0 0 0 0 0 0 0 0
0 0 0 0 0 0 0 0 0 0 0 0 0 0 15 36 33 13 3 1 1 1 0 0 0 0 0 0 0 0 0 1 0 0 0 0 0 0 0 0 0 0 0 0 0 0 0 0 0
0 0 0 0 0 0 0 0 0 0 0 0 1 5 23 43 38 17 6 2 2 2 1 0 0 0 0 0 0 0 0 0 0 0 0 0 0 0 0 0 0 0 0 0 0 0 0 0 0
0 0 0 0 0 0 0 0 0 0 0 1 3 14 37 50 37 16 6 2 1 1 1 0 0 0 0 0 0 0 0 0 0 0 0 0 0 0 0 0 0 0 0 0 0 0 0 0 0
0 0 0 0 0 0 0 0 0 0 1 2 7 25 50 53 31 12 5 2 1 1 1 1 1 1 0 0 0 0 0 0 0 0 0 0 0 0 0 0 0 0 0 0 0 0 0 0 0
0 0 0 0 0 0 0 0 0 0 1 2 10 31 50 45 25 12 8 6 5 4 2 1 2 2 2 1 0 0 0 0 0 0 0 0 0 0 0 0 0 0 0 0 0 0 0 0 0
0 0 0 0 0 0 0 0 0 0 1 3 10 27 40 36 26 25 25 19 14 11 6 3 4 5 6 5 3 2 2 1 1 0 0 0 0 0 0 0 0 0 0 0 0 0 0 0 0
0 0 0 0 0 0 0 0 0 1 2 3 7 18 29 33 36 46 53 45 31 22 15 10 9 15 22 23 18 10 6 3 2 1 1 1 1 0 0 0 0 0 0 0 0 0 0 0 0
0 0 0 0 0 0 0 0 0 1 2 3 5 11 24 36 48 64 76 72 58 44 35 26 23 31 45 50 41 26 15 9 3 1 1 2 1 0 0 0 0 0 0 0 0 0 0 0 0
0 0 0 0 0 0 0 0 0 0 2 3 3 9 24 44 61 76 88 89 82 71 61 50 45 52 60 61 49 32 20 11 4 1 1 1 1 0 0 0 0 0 0 0 0 0 0 0 0
0 0 0 0 0 0 0 0 0 0 2 3 4 10 28 52 72 86 94 95 91 86 81 73 68 66 62 50 35 22 13 6 2 0 0 0 0 0 0 0 0 0 0 0 0 0 0 0 0
0 0 0 0 0 0 0 0 0 0 1 3 4 12 33 60 80 91 94 92 89 88 86 80 73 63 50 35 20 11 5 2 0 0 0 0 0 0 0 0 0 0 0 0 0 0 0 0 0
0 0 0 0 0 0 0 0 0 0 0 1 4 13 35 65 85 90 89 85 83 81 77 71 60 46 32 21 13 7 3 1 0 0 0 0 0 0 0 0 0 0 0 0 0 0 0 0 0
0 0 0 0 0 0 0 0 0 0 0 1 3 10 30 61 83 87 82 77 74 68 60 52 42 30 18 10 6 3 1 0 0 0 0 0 0 0 0 0 0 0 0 0 0 0 0 0 0
0 0 0 0 0 0 0 0 0 0 0 0 2 6 21 49 75 80 72 62 52 44 36 29 22 16 9 4 2 1 0 0 0 0 0 0 0 0 0 0 0 0 0 0 0 0 0 0 0
0 0 0 0 0 0 0 0 0 0 0 0 1 4 15 39 64 67 51 34 24 17 13 10 7 5 3 1 1 0 0 0 0 0 0 0 0 0 0 0 0 0 0 0 0 0 0 0 0
0 0 0 0 0 0 0 0 0 0 0 0 1 6 19 39 53 46 25 10 5 3 2 1 1 1 0 0 0 0 0 0 0 0 0 0 0 0 0 0 0 0 0 0 0 0 0 0 0
0 0 0 0 0 0 0 0 0 0 0 0 1 9 26 45 45 26 9 1 0 0 0 0 0 0 0 0 0 0 0 0 0 0 0 0 0 0 0 0 0 0 0 0 0 0 0 0 0
0 0 0 0 0 0 0 0 0 0 0 0 2 14 37 51 40 17 4 0 0 0 0 0 0 0 0 0 0 0 0 0 0 0 0 0 0 0 0 0 0 0 0 0 0 0 0 0 0
0 0 0 0 0 0 0 0 0 0 0 0 5 24 51 58 38 14 2 0 0 0 0 0 0 0 0 0 0 0 0 0 0 0 0 0 0 0 0 0 0 0 0 0 0 0 0 0 0
0 0 0 0 0 0 0 0 0 0 0 1 8 31 59 62 38 12 2 0 0 0 0 0 0 0 0 0 0 0 0 0 0 0 0 0 0 0 0 0 0 0 0 0 0 0 0 0 0
0 0 0 0 0 0 0 0 0 0 0 1 8 31 58 61 36 10 1 0 0 0 0 0 0 0 0 0 0 0 0 0 0 0 0 0 0 0 0 0 0 0 0 0 0 0 0 0 0
0 0 0 0 0 0 0 0 0 0 0 0 7 29 55 58 33 8 0 0 0 0 0 0 0 0 0 0 0 0 0 0 0 0 0 0 0 0 0 0 0 0 0 0 0 0 0 0 0
Wind_Speed
11 9 7 6 8 9 7 3 3 6 6 4 3 2 4 6 6 7 8 10 10 12 14 15 13 12 12 11 10 11 12 12 12 12 11 10 9 8 7 6 5 5 5 6 7 8 8 8 7
8 7 7 7 9 9 6 5 7 6 7 7 6 3 2 5 6 8 10 10 12 12 12 13 15 13 12 12 11 11 12 11 11 10 10 9 8 6 5 4 4 4 5 6 6 6 6 6 5
7 7 7 7 9 7 4 6 7 8 9 7 6 3 3 5 7 8 10 13 12 11 10 13 14 13 13 13 12 12 12 11 10 9 8 7 6 5 4 3 3 4 4 5 5 6 6 5 5
6 7 7 9 10 3 0 5 9 12 10 7 7 6 6 5 6 9 13 13 13 12 11 14 13 14 14 13 13 12 12 11 10 9 8 7 6 5 4 3 4 4 4 5 5 6 6 6 5
7 7 10 11 8 3 3 5 11 12 11 9 6 7 8 6 8 13 14 13 12 11 11 14 12 13 13 13 12 12 11 10 9 8 7 6 5 4 3 3 4 4 4 5 6 6 6 6 6
7 7 10 9 7 5 6 8 12 11 11 10 8 8 8 9 10 13 14 12 12 11 11 13 12 12 12 12 11 10 10 9 8 8 7 6 5 4 3 3 4 4 5 5 6 6 6 6 6
9 8 10 6 5 7 7 10 13 11 11 11 9 8 9 10 12 13 13 11 11 11 11 12 14 13 12 10 10 10 9 8 8 7 6 5 4 4 4 4 5 5 5 6 6 6 6 6 6
7 7 9 7 7 8 7 11 12 11 9 8 8 7 9 14 14 13 12 11 10 10 9 10 11 12 12 12 11 9 9 8 7 6 5 5 5 5 4 5 6 5 5 5 5 5 5 5 5
7 9 8 6 5 6 7 11 12 9 8 9 8 2 7 19 17 15 14 12 10 9 9 9 10 9 9 10 11 10 9 7 7 8 6 6 5 4 5 7 6 5 5 5 5 5 4 3 6
8 11 5 2 2 1 4 9 12 12 13 12 11 7 12 19 18 17 16 15 14 13 11 9 9 10 9 7 8 7 7 8 6 4 5 4 1 0 1 8 6 5 4 5 5 3 5 7 4
9 9 1 3 4 6 5 9 13 16 15 16 16 15 17 20 19 18 17 15 14 13 11 10 9 8 8 7 6 5 4 4 5 4 4 2 2 3 2 3 6 5 5 4 5 6 3 2 2
9 9 7 6 5 6 7 9 14 17 15 12 14 17 20 21 20 18 17 15 14 13 12 10 10 8 7 6 5 5 4 4 3 4 4 3 2 2 1 2 1 2 2 0 3 2 2 3 4
14 10 8 9 10 9 9 11 13 16 12 6 12 18 22 21 20 17 15 14 13 13 12 11 10 9 7 5 4 5 4 4 4 3 3 2 2 2 1 1 1 3 2 3 3 4 3 5 6
9 10 10 10 9 6 8 9 12 9 8 10 14 19 21 21 20 17 15 14 13 12 12 11 11 10 9 7 5 4 4 3 3 2 1 1 2 1 1 1 1 2 2 3 4 3 4 4 5
7 10 12 11 8 4 7 10 9 3 7 12 16 18 20 20 20 18 16 14 13 12 11 11 11 10 9 8 7 5 4 4 3 3 2 2 2 1 1 1 1 2 2 1 3 3 4 4 5
10 13 15 10 6 5 10 13 7 2 8 12 14 16 18 19 20 17 16 13 11 11 11 11 9 11 9 7 5 4 3 4 3 3 4 4 5 3 1 2 3 3 2 3 2 4 5 4 6
14 16 17 12 5 5 10 9 7 1 7 10 12 14 16 17 18 16 14 13 11 10 10 11 10 10 10 9 7 7 6 5 4 4 4 6 6 5 3 3 4 3 3 4 4 4 6 6 6
14 16 17 15 7 6 10 8 3 2 7 10 11 12 14 16 16 14 12 11 10 10 10 10 11 11 10 9 8 7 7 6 6 6 6 7 6 6 4 4 4 4 3 4 4 4 4 5 5
9 11 13 12 4 8 11 11 7 5 8 10 12 13 14 15 13 11 11 10 10 10 11 11 11 11 9 7 7 6 6 6 6 7 7 7 6 6 5 3 4 4 4 4 5 5 6 5 4
14 14 15 12 7 9 11 13 10 8 10 10 11 13 14 14 12 10 10 10 11 11 11 11 11 11 9 7 6 5 6 6 6 6 6 6 6 5 4 4 3 3 2 2 3 4 6 6 5
16 16 15 14 11 11 12 18 17 12 11 11 12 13 14 15 15 13 12 11 11 11 11 10 11 10 11 11 8 8 6 6 5 5 4 5 5 5 4 3 3 2 4 3 4 5 6 7 7
15 14 14 14 15 15 12 15 17 13 12 14 15 15 15 15 15 14 13 12 11 11 10 11 11 10 10 10 9 9 6 5 5 3 4 4 3 3 3 3 4 4 5 4 6 5 6 6 7
14 10 12 14 15 16 13 14 15 10 13 16 17 16 15 14 13 13 13 13 12 12 11 11 11 11 9 8 9 8 7 6 5 4 4 1 3 3 4 4 4 4 4 5 6 5 6 6 6
11 8 10 12 13 18 17 17 15 11 13 14 14 15 13 12 12 12 12 13 13 12 11 11 11 11 10 9 8 8 8 6 5 3 2 1 1 1 2 3 3 4 4 4 4 5 5 5 6
12 12 10 11 13 15 13 13 13 10 10 11 9 10 13 13 14 14 15 14 14 14 13 12 12 11 10 9 9 8 8 7 5 2 2 2 2 1 2 3 3 4 4 4 5 5 5 6 6
14 16 13 11 11 10 7 10 8 4 5 7 7 9 13 15 15 16 16 16 15 15 14 13 12 11 10 9 8 7 6 3 4 3 2 1 2 2 2 4 4 5 5 6 5 7 6 5 7
18 17 18 17 17 16 13 13 8 9 12 11 9 11 15 16 16 17 17 16 16 15 13 12 12 11 9 9 8 7 5 5 4 2 1 1 2 2 3 4 5 6 6 7 7 7 8 8 9
17 15 11 13 15 17 17 17 13 10 9 9 11 13 16 17 16 17 16 16 15 14 12 10 10 10 9 9 6 6 6 4 3 0 1 2 3 3 5 6 6 7 7 8 8 9 8 9 10
14 15 13 13 14 15 15 11 4 3 4 6 8 12 16 17 17 16 16 16 15 14 12 11 10 10 9 8 7 6 4 3 1 1 2 3 4 5 6 7 8 8 9 9 9 10 11 12 12
11 14 16 14 15 15 15 13 1 0 4 6 6 9 13 17 17 17 17 17 15 14 13 11 11 10 9 7 6 5 3 1 2 2 3 4 5 7 8 8 9 10 10 10 11 12 12 13 14
Wind_Direction
177 196 228 241 245 238 242 168 162 146 134 107 89 36 17 16 0 50 108 138 140 141 137 146 147 147 146 143 136 127 122 119 117 116 115 114 114 113 114 114 111 108 103 97 91 87 86 86 86
182 203 228 240 253 239 194 165 171 138 111 128 125 110 89 73 57 100 130 137 145 143 147 146 143 148 148 147 143 137 133 130 127 125 123 120 118 115 114 115 109 99 93 89 86 83 81 80 79
198 228 248 244 245 259 142 152 153 128 138 155 138 119 70 76 108 118 124 140 144 143 146 133 150 151 151 151 149 146 143 140 137 134 130 126 121 113 107 107 102 93 86 80 79 79 76 71 65
213 215 232 246 242 243 338 148 149 148 155 164 151 129 98 86 114 121 132 143 144 147 149 139 157 154 156 157 154 151 148 145 142 139 134 131 126 119 108 101 96 90 83 80 82 86 82 74 63
234 238 233 236 231 178 189 169 167 162 156 161 169 136 119 110 112 127 141 147 149 148 148 144 158 157 158 159 156 152 149 144 140 138 136 132 126 117 104 94 91 88 84 82 87 91 83 72 61
220 233 238 223 181 171 180 182 182 170 156 160 170 145 117 127 141 146 148 153 150 149 149 136 152 158 160 160 158 152 146 141 137 136 135 131 125 115 103 88 88 92 92 92 93 90 85 78 70
243 238 247 232 177 175 173 182 189 176 167 166 172 153 128 152 151 153 150 154 151 150 150 151 157 160 162 160 157 150 143 137 135 134 133 131 126 117 104 99 94 96 96 96 96 94 89 82 72
262 257 235 216 198 157 160 185 196 192 172 144 176 173 155 158 156 156 152 156 154 154 154 155 157 157 164 162 157 151 145 140 137 138 140 144 158 153 137 150 102 97 98 101 101 98 96 97 89
248 248 220 186 189 144 161 187 189 196 167 169 189 179 129 148 160 163 161 166 163 159 161 167 157 161 165 156 149 160 155 151 166 167 161 206 204 167 166 84 87 94 97 102 103 101 110 162 149
232 243 198 107 284 268 188 203 181 188 189 187 183 161 144 155 170 175 174 174 172 171 174 170 162 165 169 158 154 172 175 162 197 163 173 198 139 134 41 113 108 106 115 134 121 140 199 237 195
228 249 224 239 278 293 252 215 195 202 203 201 193 175 164 170 179 185 182 179 176 170 172 171 168 175 167 163 167 167 167 154 180 172 179 177 207 186 205 177 162 164 186 193 156 208 226 266 320
238 247 261 278 303 280 260 222 205 213 217 206 194 175 173 181 187 190 185 178 174 173 173 170 164 172 180 166 160 171 170 167 172 154 206 186 203 225 218 251 313 232 207 287 272 258 244 273 269
234 246 255 266 277 278 259 233 218 218 221 201 184 176 183 187 190 190 186 176 174 174 172 169 171 165 170 170 180 177 166 166 150 169 174 229 235 232 223 265 301 292 304 254 262 285 296 286 269
240 249 259 267 271 244 235 214 215 216 211 198 187 187 190 190 191 185 184 178 178 174 172 166 173 167 171 174 177 169 164 153 154 156 107 275 295 326 275 239 295 314 320 337 316 315 295 283 301
255 253 247 238 242 225 233 199 201 172 203 200 197 197 196 193 191 188 183 180 178 175 170 168 170 164 173 173 172 164 150 150 133 106 83 51 34 49 315 353 317 5 355 329 300 307 290 288 288
226 235 238 208 216 213 239 212 144 161 203 205 205 202 200 195 194 189 180 177 177 175 167 168 164 159 158 147 141 130 116 112 104 97 86 70 63 58 27 33 37 11 337 329 329 312 306 305 298
220 230 230 203 186 233 242 228 116 192 217 215 209 206 203 196 199 187 179 174 174 171 165 164 154 150 142 130 121 106 98 94 95 89 82 77 69 62 52 46 39 351 351 347 332 347 323 312 311
228 233 232 231 177 241 241 238 173 233 238 229 217 211 204 200 197 184 177 170 168 165 161 153 143 136 132 124 114 108 102 101 92 84 76 74 71 57 46 69 37 357 360 357 3 338 328 316 313
269 262 250 241 236 261 248 245 233 232 238 234 226 217 209 204 188 176 165 162 161 159 154 150 143 137 134 129 129 124 115 111 100 90 82 77 68 62 40 41 49 8 21 3 343 328 308 290 307
240 244 247 245 229 261 259 252 244 238 242 243 239 226 217 198 173 165 164 164 164 158 152 147 144 140 135 123 113 111 114 105 95 91 82 75 71 58 61 37 18 23 341 320 328 322 311 305 299
233 242 250 256 254 245 261 256 241 224 234 238 239 235 222 203 187 178 174 167 158 152 149 144 140 137 131 130 126 130 128 132 126 114 102 83 80 78 63 52 8 346 306 337 327 313 314 314 306
238 237 252 259 261 259 246 268 254 221 220 229 230 226 220 204 194 182 173 160 150 140 133 134 131 132 134 141 145 150 145 135 120 125 108 110 85 60 45 26 7 341 332 338 307 350 313 301 302
246 259 249 254 260 266 250 257 263 227 237 238 228 222 216 200 187 176 165 149 138 134 131 131 130 130 132 133 133 136 127 121 126 122 109 106 90 45 22 8 355 340 326 344 330 320 309 305 306
238 242 247 249 253 253 250 255 261 235 235 249 232 213 206 189 169 156 144 137 133 132 131 133 131 129 130 129 128 121 117 118 117 112 103 239 66 23 25 346 343 321 334 331 314 309 294 309 318
217 229 235 231 227 246 243 248 262 265 250 256 248 204 190 176 161 152 148 145 141 141 139 139 136 131 130 126 119 116 116 120 118 111 100 322 325 327 34 332 321 321 321 309 307 293 303 294 295
216 229 247 264 264 264 224 240 263 259 262 264 249 205 181 174 167 162 159 154 151 148 147 144 139 134 133 126 120 117 124 119 101 80 12 342 325 345 356 301 299 299 297 295 296 289 283 282 282
239 235 247 261 270 275 270 272 264 242 243 239 224 198 183 176 169 166 162 158 155 152 151 147 140 136 134 129 124 122 112 85 85 102 247 301 310 296 288 291 292 292 291 292 290 285 289 286 281
244 247 242 245 257 263 263 259 258 251 249 232 214 200 185 175 170 167 164 160 156 151 148 144 142 139 136 134 131 121 110 103 100 29 5 316 294 293 292 290 292 291 290 287 286 288 289 289 285
215 228 234 247 252 264 267 266 301 265 294 273 228 202 185 175 170 168 164 159 154 151 149 148 146 143 140 132 124 116 112 109 112 257 273 280 286 289 284 289 291 291 290 290 288 289 294 291 292
245 238 235 246 253 255 266 274 341 5 303 286 252 203 183 172 170 168 163 158 157 157 155 154 153 146 139 132 126 121 123 150 246 263 280 277 276 281 286 288 288 288 289 290 289 291 295 296 296